Weather in Daloa

Côte d'Ivoire     6°45′40″N   6°24′28″W
temp.,
°C
wind,
m/s
gust,
m/s
humid.,
%
clouds,
%
prec.,
mm/h
press.,
hPa
HPBL,
m
17 may, mon
mon1700:00+24sse1694100 1.0 1012223
03:00+23sw149599 0.0 1010140
06:00+22sw149777 0.0 1012131
09:00+28sw236883 0.0 1013760
12:00+35s1341100 0.0 10111958
15:00+37sse2631100 0.0 10073081
18:00+31s385554 0.0 1008671
21:00+25s3989100 0.4 1012455
18 may, tue
tue1800:00+24ssw3994100 0.4 1012535
03:00+24sw289499 0.1 1011587
06:00+24sw2891100 0.1 1012516
09:00+27sw247494 0.1 1014858
12:00+29ssw236198 0.1 10121234
15:00+34sw234499 0.0 10092251
18:00+30sw135998 0.0 1009100
21:00+26s2879100 0.0 1012419
19 may, wed
wed1900:00+24ssw1691100 0.0 1013330
03:00+23sw2798100 0.0 1012355
06:00+23wsw2794100 0.0 1013387
09:00+26wsw2477100 0.0 1014694
12:00+32ssw235299 0.1 10121757
15:00+33sw234899 0.0 10101481
18:00+27s387363 0.2 1011573
21:00+24s298911 0.0 1014515
20 may, thu
thu2000:00+23sw279898 0.1 1014381
03:00+22wsw1698100 0.0 1013341
06:00+23ssw159597 0.0 1014313
09:00+27sw237094 0.0 1015743
12:00+33ssw224426 0.0 10121547
15:00+36s353639 0.0 10092678
18:00+31s26490 0.0 1009281
21:00+27s310671 0.0 1012398
21 may, fri
fri2100:00+24ssw29825 0.0 1014587
03:00+22sw169611 0.3 1013245
06:00+22ssw169939 0.3 1014211
09:00+28sw246943 0.0 1015948
12:00+34ssw224366 0.0 10131968
15:00+36s253476 0.0 10092743
18:00+31sw154979 0.0 1009199
21:00+24wsw119034 0.9 101312